#datetime,building,power
2021-12-14T00:00:00,plm,11.54
2021-12-14T00:01:00,plm,11.44
2021-12-14T00:02:00,plm,11.47
2021-12-14T00:03:00,plm,11.47
2021-12-14T00:04:00,plm,11.47
2021-12-14T00:05:00,plm,11.33
2021-12-14T00:06:00,plm,11.71
2021-12-14T00:07:00,plm,11.73
2021-12-14T00:08:00,plm,11.59
2021-12-14T00:09:00,plm,11.67
2021-12-14T00:10:00,plm,11.73
2021-12-14T00:11:00,plm,11.29
2021-12-14T00:12:00,plm,11.29
2021-12-14T00:13:00,plm,11.24
2021-12-14T00:14:00,plm,11.15
2021-12-14T00:15:00,plm,11.23
2021-12-14T00:16:00,plm,11.19
2021-12-14T00:17:00,plm,11.22
2021-12-14T00:18:00,plm,11.17
2021-12-14T00:19:00,plm,11.19
2021-12-14T00:20:00,plm,11.16
2021-12-14T00:21:00,plm,11.21
2021-12-14T00:22:00,plm,11.21
2021-12-14T00:23:00,plm,11.21
2021-12-14T00:24:00,plm,11.22
2021-12-14T00:25:00,plm,11.64
2021-12-14T00:26:00,plm,11.65
2021-12-14T00:27:00,plm,13.07
2021-12-14T00:28:00,plm,11.66
2021-12-14T00:29:00,plm,11.21
2021-12-14T00:30:00,plm,12.64
2021-12-14T00:31:00,plm,12.63
2021-12-14T00:32:00,plm,11.18
2021-12-14T00:33:00,plm,11.21
2021-12-14T00:34:00,plm,11.16
2021-12-14T00:35:00,plm,11.12
2021-12-14T00:36:00,plm,11.11
2021-12-14T00:37:00,plm,11.10
2021-12-14T00:38:00,plm,11.10
2021-12-14T00:39:00,plm,11.11
2021-12-14T00:40:00,plm,11.08
2021-12-14T00:41:00,plm,11.09
2021-12-14T00:42:00,plm,11.14
2021-12-14T00:43:00,plm,11.14
2021-12-14T00:44:00,plm,11.11
2021-12-14T00:45:00,plm,11.18
2021-12-14T00:46:00,plm,11.13
2021-12-14T00:47:00,plm,11.55
2021-12-14T00:48:00,plm,11.52
2021-12-14T00:49:00,plm,11.54
2021-12-14T00:50:00,plm,11.63
2021-12-14T00:51:00,plm,11.14
2021-12-14T00:52:00,plm,11.14
2021-12-14T00:53:00,plm,11.16
2021-12-14T00:54:00,plm,22.52
2021-12-14T00:55:00,plm,11.28
2021-12-14T00:56:00,plm,11.20
2021-12-14T00:57:00,plm,11.20
2021-12-14T00:58:00,plm,11.15
2021-12-14T00:59:00,plm,11.17
2021-12-14T01:00:00,plm,11.13
2021-12-14T01:01:00,plm,11.14
2021-12-14T01:02:00,plm,11.16
2021-12-14T01:03:00,plm,11.18
2021-12-14T01:04:00,plm,11.24
2021-12-14T01:05:00,plm,13.04
2021-12-14T01:06:00,plm,13.42
2021-12-14T01:07:00,plm,13.35
2021-12-14T01:08:00,plm,11.98
2021-12-14T01:09:00,plm,12.00
2021-12-14T01:10:00,plm,11.96
2021-12-14T01:11:00,plm,21.21
2021-12-14T01:12:00,plm,22.14
2021-12-14T01:13:00,plm,13.51
2021-12-14T01:14:00,plm,12.60
2021-12-14T01:15:00,plm,12.51
2021-12-14T01:16:00,plm,12.55
2021-12-14T01:17:00,plm,12.51
2021-12-14T01:18:00,plm,13.01
2021-12-14T01:19:00,plm,11.86
2021-12-14T01:20:00,plm,11.88
2021-12-14T01:21:00,plm,11.81
2021-12-14T01:22:00,plm,11.71
2021-12-14T01:23:00,plm,11.72
2021-12-14T01:24:00,plm,11.88
2021-12-14T01:25:00,plm,12.20
2021-12-14T01:26:00,plm,12.19
2021-12-14T01:27:00,plm,12.25
2021-12-14T01:28:00,plm,11.73
2021-12-14T01:29:00,plm,11.73
2021-12-14T01:30:00,plm,10.62
2021-12-14T01:31:00,plm,10.60
2021-12-14T01:32:00,plm,10.44
2021-12-14T01:33:00,plm,10.54
2021-12-14T01:34:00,plm,10.62
2021-12-14T01:35:00,plm,10.61
2021-12-14T01:36:00,plm,10.64
2021-12-14T01:37:00,plm,10.60
2021-12-14T01:38:00,plm,10.52
2021-12-14T01:39:00,plm,10.55
2021-12-14T01:40:00,plm,10.49
2021-12-14T01:41:00,plm,10.65
2021-12-14T01:42:00,plm,10.45
2021-12-14T01:43:00,plm,10.54
2021-12-14T01:44:00,plm,10.53
2021-12-14T01:45:00,plm,10.51
2021-12-14T01:46:00,plm,10.51
2021-12-14T01:47:00,plm,10.48
2021-12-14T01:48:00,plm,10.43
2021-12-14T01:49:00,plm,10.40
2021-12-14T01:50:00,plm,10.46
2021-12-14T01:51:00,plm,10.45
2021-12-14T01:52:00,plm,10.41
2021-12-14T01:53:00,plm,10.38
2021-12-14T01:54:00,plm,10.37
2021-12-14T01:55:00,plm,10.34
2021-12-14T01:56:00,plm,10.36
2021-12-14T01:57:00,plm,10.82
2021-12-14T01:58:00,plm,10.87
2021-12-14T01:59:00,plm,10.80
2021-12-14T02:00:00,plm,10.83
2021-12-14T02:01:00,plm,10.78
2021-12-14T02:02:00,plm,10.36
2021-12-14T02:03:00,plm,10.49
2021-12-14T02:04:00,plm,10.47
2021-12-14T02:05:00,plm,10.45
2021-12-14T02:06:00,plm,10.54
2021-12-14T02:07:00,plm,10.58
2021-12-14T02:08:00,plm,10.53
2021-12-14T02:09:00,plm,10.52
2021-12-14T02:10:00,plm,10.48
2021-12-14T02:11:00,plm,10.39
2021-12-14T02:12:00,plm,10.40
2021-12-14T02:13:00,plm,10.38
2021-12-14T02:14:00,plm,10.36
2021-12-14T02:15:00,plm,10.42
2021-12-14T02:16:00,plm,10.40
2021-12-14T02:17:00,plm,10.34
2021-12-14T02:18:00,plm,10.23
2021-12-14T02:19:00,plm,10.65
2021-12-14T02:20:00,plm,10.67
2021-12-14T02:21:00,plm,10.55
2021-12-14T02:22:00,plm,10.58
2021-12-14T02:23:00,plm,10.63
2021-12-14T02:24:00,plm,10.18
2021-12-14T02:25:00,plm,10.29
2021-12-14T02:26:00,plm,10.27
2021-12-14T02:27:00,plm,10.36
2021-12-14T02:28:00,plm,10.34
2021-12-14T02:29:00,plm,10.35
2021-12-14T02:30:00,plm,10.35
2021-12-14T02:31:00,plm,10.38
2021-12-14T02:32:00,plm,10.38
2021-12-14T02:33:00,plm,10.39
2021-12-14T02:34:00,plm,10.36
2021-12-14T02:35:00,plm,10.31
2021-12-14T02:36:00,plm,10.30
2021-12-14T02:37:00,plm,10.30
2021-12-14T02:38:00,plm,10.35
2021-12-14T02:39:00,plm,10.76
2021-12-14T02:40:00,plm,10.73
2021-12-14T02:41:00,plm,10.71
2021-12-14T02:42:00,plm,10.73
2021-12-14T02:43:00,plm,10.70
2021-12-14T02:44:00,plm,10.28
2021-12-14T02:45:00,plm,10.32
2021-12-14T02:46:00,plm,10.30
2021-12-14T02:47:00,plm,10.32
2021-12-14T02:48:00,plm,10.29
2021-12-14T02:49:00,plm,10.32
2021-12-14T02:50:00,plm,10.40
2021-12-14T02:51:00,plm,10.37
2021-12-14T02:52:00,plm,10.34
2021-12-14T02:53:00,plm,10.30
2021-12-14T02:54:00,plm,10.31
2021-12-14T02:55:00,plm,10.30
2021-12-14T02:56:00,plm,10.36
2021-12-14T02:57:00,plm,10.35
2021-12-14T02:58:00,plm,10.34
2021-12-14T02:59:00,plm,10.22
2021-12-14T03:00:00,plm,10.71
2021-12-14T03:01:00,plm,10.71
2021-12-14T03:02:00,plm,10.70
2021-12-14T03:03:00,plm,10.63
2021-12-14T03:04:00,plm,10.07
2021-12-14T03:05:00,plm,10.15
2021-12-14T03:06:00,plm,10.09
2021-12-14T03:07:00,plm,10.12
2021-12-14T03:08:00,plm,10.13
2021-12-14T03:09:00,plm,10.11
2021-12-14T03:10:00,plm,10.12
2021-12-14T03:11:00,plm,10.24
2021-12-14T03:12:00,plm,10.30
2021-12-14T03:13:00,plm,10.25
2021-12-14T03:14:00,plm,10.25
2021-12-14T03:15:00,plm,10.27
2021-12-14T03:16:00,plm,10.28
2021-12-14T03:17:00,plm,10.24
2021-12-14T03:18:00,plm,10.31
2021-12-14T03:19:00,plm,10.31
2021-12-14T03:20:00,plm,10.72
2021-12-14T03:21:00,plm,10.86
2021-12-14T03:22:00,plm,10.84
2021-12-14T03:23:00,plm,10.81
2021-12-14T03:24:00,plm,10.35
2021-12-14T03:25:00,plm,10.33
2021-12-14T03:26:00,plm,10.32
2021-12-14T03:27:00,plm,10.30
2021-12-14T03:28:00,plm,19.64
2021-12-14T03:29:00,plm,19.47
2021-12-14T03:30:00,plm,19.33
2021-12-14T03:31:00,plm,10.34
2021-12-14T03:32:00,plm,10.34
2021-12-14T03:33:00,plm,10.39
2021-12-14T03:34:00,plm,10.39
2021-12-14T03:35:00,plm,10.31
2021-12-14T03:36:00,plm,10.29
2021-12-14T03:37:00,plm,10.29
2021-12-14T03:38:00,plm,10.30
2021-12-14T03:39:00,plm,10.76
2021-12-14T03:40:00,plm,10.80
2021-12-14T03:41:00,plm,10.61
2021-12-14T03:42:00,plm,10.72
2021-12-14T03:43:00,plm,10.71
2021-12-14T03:44:00,plm,10.19
2021-12-14T03:45:00,plm,10.22
2021-12-14T03:46:00,plm,10.15
2021-12-14T03:47:00,plm,10.09
2021-12-14T03:48:00,plm,10.08
2021-12-14T03:49:00,plm,10.06
2021-12-14T03:50:00,plm,10.04
2021-12-14T03:51:00,plm,10.03
2021-12-14T03:52:00,plm,10.04
2021-12-14T03:53:00,plm,10.04
2021-12-14T03:54:00,plm,10.02
2021-12-14T03:55:00,plm,10.02
2021-12-14T03:56:00,plm,10.04
2021-12-14T03:57:00,plm,9.89
2021-12-14T03:58:00,plm,10.38
2021-12-14T03:59:00,plm,10.42
2021-12-14T04:00:00,plm,10.42
2021-12-14T04:01:00,plm,10.46
2021-12-14T04:02:00,plm,10.46
2021-12-14T04:03:00,plm,10.00
2021-12-14T04:04:00,plm,10.81
2021-12-14T04:05:00,plm,10.76
2021-12-14T04:06:00,plm,10.79
2021-12-14T04:07:00,plm,10.78
2021-12-14T04:08:00,plm,10.71
2021-12-14T04:09:00,plm,10.22
2021-12-14T04:10:00,plm,10.17
2021-12-14T04:11:00,plm,10.15
2021-12-14T04:12:00,plm,10.63
2021-12-14T04:13:00,plm,10.58
2021-12-14T04:14:00,plm,10.59
2021-12-14T04:15:00,plm,10.60
2021-12-14T04:16:00,plm,10.15
2021-12-14T04:17:00,plm,10.19
2021-12-14T04:18:00,plm,10.24
2021-12-14T04:19:00,plm,10.25
2021-12-14T04:20:00,plm,10.66
2021-12-14T04:21:00,plm,9.85
2021-12-14T04:22:00,plm,9.84
2021-12-14T04:23:00,plm,9.81
2021-12-14T04:24:00,plm,9.82
2021-12-14T04:25:00,plm,9.81
2021-12-14T04:26:00,plm,9.81
2021-12-14T04:27:00,plm,9.83
2021-12-14T04:28:00,plm,9.82
2021-12-14T04:29:00,plm,9.85
2021-12-14T04:30:00,plm,9.78
2021-12-14T04:31:00,plm,9.78
2021-12-14T04:32:00,plm,9.75
2021-12-14T04:33:00,plm,9.75
2021-12-14T04:34:00,plm,9.75
2021-12-14T04:35:00,plm,9.76
2021-12-14T04:36:00,plm,9.71
2021-12-14T04:37:00,plm,9.70
2021-12-14T04:38:00,plm,9.71
2021-12-14T04:39:00,plm,9.75
2021-12-14T04:40:00,plm,9.72
2021-12-14T04:41:00,plm,9.80
2021-12-14T04:42:00,plm,9.80
2021-12-14T04:43:00,plm,10.24
2021-12-14T04:44:00,plm,10.26
2021-12-14T04:45:00,plm,10.27
2021-12-14T04:46:00,plm,10.31
2021-12-14T04:47:00,plm,10.25
2021-12-14T04:48:00,plm,9.79
2021-12-14T04:49:00,plm,9.86
2021-12-14T04:50:00,plm,9.92
2021-12-14T04:51:00,plm,9.97
2021-12-14T04:52:00,plm,9.94
2021-12-14T04:53:00,plm,9.94
2021-12-14T04:54:00,plm,9.95
2021-12-14T04:55:00,plm,9.93
2021-12-14T04:56:00,plm,9.98
2021-12-14T04:57:00,plm,9.96
2021-12-14T04:58:00,plm,9.95
2021-12-14T04:59:00,plm,9.99
2021-12-14T05:00:00,plm,10.00
2021-12-14T05:01:00,plm,9.93
2021-12-14T05:02:00,plm,10.39
2021-12-14T05:03:00,plm,10.35
2021-12-14T05:04:00,plm,10.37
2021-12-14T05:05:00,plm,10.38
2021-12-14T05:06:00,plm,9.92
2021-12-14T05:07:00,plm,9.91
2021-12-14T05:08:00,plm,9.96
2021-12-14T05:09:00,plm,9.94
2021-12-14T05:10:00,plm,9.93
2021-12-14T05:11:00,plm,9.89
2021-12-14T05:12:00,plm,9.85
2021-12-14T05:13:00,plm,9.85
2021-12-14T05:14:00,plm,9.87
2021-12-14T05:15:00,plm,9.83
2021-12-14T05:16:00,plm,9.82
2021-12-14T05:17:00,plm,9.77
2021-12-14T05:18:00,plm,9.77
2021-12-14T05:19:00,plm,9.79
2021-12-14T05:20:00,plm,9.79
2021-12-14T05:21:00,plm,10.34
2021-12-14T05:22:00,plm,10.30
2021-12-14T05:23:00,plm,10.31
2021-12-14T05:24:00,plm,10.31
2021-12-14T05:25:00,plm,9.87
2021-12-14T05:26:00,plm,9.86
2021-12-14T05:27:00,plm,9.87
2021-12-14T05:28:00,plm,9.85
2021-12-14T05:29:00,plm,9.86
2021-12-14T05:30:00,plm,9.83
2021-12-14T05:31:00,plm,9.82
2021-12-14T05:32:00,plm,9.89
2021-12-14T05:33:00,plm,9.88
2021-12-14T05:34:00,plm,9.88
2021-12-14T05:35:00,plm,9.87
2021-12-14T05:36:00,plm,9.88
2021-12-14T05:37:00,plm,9.85
2021-12-14T05:38:00,plm,9.84
2021-12-14T05:39:00,plm,10.59
2021-12-14T05:40:00,plm,10.37
2021-12-14T05:41:00,plm,10.33
2021-12-14T05:42:00,plm,10.42
2021-12-14T05:43:00,plm,10.39
2021-12-14T05:44:00,plm,9.94
2021-12-14T05:45:00,plm,9.94
2021-12-14T05:46:00,plm,9.82
2021-12-14T05:47:00,plm,9.83
2021-12-14T05:48:00,plm,9.81
2021-12-14T05:49:00,plm,9.80
2021-12-14T05:50:00,plm,19.10
2021-12-14T05:51:00,plm,18.89
2021-12-14T05:52:00,plm,18.76
2021-12-14T05:53:00,plm,9.80
2021-12-14T05:54:00,plm,9.80
2021-12-14T05:55:00,plm,9.78
2021-12-14T05:56:00,plm,9.80
2021-12-14T05:57:00,plm,9.76
2021-12-14T05:58:00,plm,10.17
2021-12-14T05:59:00,plm,10.19
2021-12-14T06:00:00,plm,10.18
2021-12-14T06:01:00,plm,10.22
2021-12-14T06:02:00,plm,10.24
2021-12-14T06:03:00,plm,9.72
2021-12-14T06:04:00,plm,9.76
2021-12-14T06:05:00,plm,9.75
2021-12-14T06:06:00,plm,9.76
2021-12-14T06:07:00,plm,9.71
2021-12-14T06:08:00,plm,9.76
2021-12-14T06:09:00,plm,9.86
2021-12-14T06:10:00,plm,9.78
2021-12-14T06:11:00,plm,9.77
2021-12-14T06:12:00,plm,9.79
2021-12-14T06:13:00,plm,9.82
2021-12-14T06:14:00,plm,9.80
2021-12-14T06:15:00,plm,9.77
2021-12-14T06:16:00,plm,10.29
2021-12-14T06:17:00,plm,10.40
2021-12-14T06:18:00,plm,10.31
2021-12-14T06:19:00,plm,10.06
2021-12-14T06:20:00,plm,10.10
2021-12-14T06:21:00,plm,9.60
2021-12-14T06:22:00,plm,9.60
2021-12-14T06:23:00,plm,9.59
2021-12-14T06:24:00,plm,9.55
2021-12-14T06:25:00,plm,9.73
2021-12-14T06:26:00,plm,10.54
2021-12-14T06:27:00,plm,10.59
2021-12-14T06:28:00,plm,10.56
2021-12-14T06:29:00,plm,10.56
2021-12-14T06:30:00,plm,10.53
2021-12-14T06:31:00,plm,10.57
2021-12-14T06:32:00,plm,10.52
2021-12-14T06:33:00,plm,10.12
2021-12-14T06:34:00,plm,10.04
2021-12-14T06:35:00,plm,10.14
2021-12-14T06:36:00,plm,10.52
2021-12-14T06:37:00,plm,10.51
2021-12-14T06:38:00,plm,10.50
2021-12-14T06:39:00,plm,10.05
2021-12-14T06:40:00,plm,9.94
2021-12-14T06:41:00,plm,9.95
2021-12-14T06:42:00,plm,9.96
2021-12-14T06:43:00,plm,9.60
2021-12-14T06:44:00,plm,9.69
2021-12-14T06:45:00,plm,9.65
2021-12-14T06:46:00,plm,9.63
2021-12-14T06:47:00,plm,9.64
2021-12-14T06:48:00,plm,9.64
2021-12-14T06:49:00,plm,9.63
2021-12-14T06:50:00,plm,9.65
2021-12-14T06:51:00,plm,9.61
2021-12-14T06:52:00,plm,9.71
2021-12-14T06:53:00,plm,9.66
2021-12-14T06:54:00,plm,9.63
2021-12-14T06:55:00,plm,9.67
2021-12-14T06:56:00,plm,9.67
2021-12-14T06:57:00,plm,9.65
2021-12-14T06:58:00,plm,9.67
2021-12-14T06:59:00,plm,9.60
2021-12-14T07:00:00,plm,9.55
2021-12-14T07:01:00,plm,10.09
2021-12-14T07:02:00,plm,10.12
2021-12-14T07:03:00,plm,10.14
2021-12-14T07:04:00,plm,10.24
2021-12-14T07:05:00,plm,10.33
2021-12-14T07:06:00,plm,9.94
2021-12-14T07:07:00,plm,9.94
2021-12-14T07:08:00,plm,9.78
2021-12-14T07:09:00,plm,10.07
2021-12-14T07:10:00,plm,9.86
2021-12-14T07:11:00,plm,10.08
2021-12-14T07:12:00,plm,9.92
2021-12-14T07:13:00,plm,9.91
2021-12-14T07:14:00,plm,9.83
2021-12-14T07:15:00,plm,9.22
2021-12-14T07:16:00,plm,9.10
2021-12-14T07:17:00,plm,9.81
2021-12-14T07:18:00,plm,9.63
2021-12-14T07:19:00,plm,9.81
2021-12-14T07:20:00,plm,9.87
2021-12-14T07:21:00,plm,9.58
2021-12-14T07:22:00,plm,9.22
2021-12-14T07:23:00,plm,9.04
2021-12-14T07:24:00,plm,9.28
2021-12-14T07:25:00,plm,9.16
2021-12-14T07:26:00,plm,9.27
2021-12-14T07:27:00,plm,9.23
2021-12-14T07:28:00,plm,9.32
2021-12-14T07:29:00,plm,9.34
2021-12-14T07:30:00,plm,9.28
2021-12-14T07:31:00,plm,9.35
2021-12-14T07:32:00,plm,9.20
2021-12-14T07:33:00,plm,9.24
2021-12-14T07:34:00,plm,9.26
2021-12-14T07:35:00,plm,9.54
2021-12-14T07:36:00,plm,9.67
2021-12-14T07:37:00,plm,9.71
2021-12-14T07:38:00,plm,9.77
2021-12-14T07:39:00,plm,9.55
2021-12-14T07:40:00,plm,10.56
2021-12-14T07:41:00,plm,11.11
2021-12-14T07:42:00,plm,9.46
2021-12-14T07:43:00,plm,9.49
2021-12-14T07:44:00,plm,9.50
2021-12-14T07:45:00,plm,9.59
2021-12-14T07:46:00,plm,9.68
2021-12-14T07:47:00,plm,9.84
2021-12-14T07:48:00,plm,9.62
2021-12-14T07:49:00,plm,9.57
2021-12-14T07:50:00,plm,9.73
2021-12-14T07:51:00,plm,9.70
2021-12-14T07:52:00,plm,9.74
2021-12-14T07:53:00,plm,9.73
2021-12-14T07:54:00,plm,9.71
2021-12-14T07:55:00,plm,9.65
2021-12-14T07:56:00,plm,9.50
2021-12-14T07:57:00,plm,9.04
2021-12-14T07:58:00,plm,9.04
2021-12-14T07:59:00,plm,9.04
2021-12-14T08:00:00,plm,9.10
2021-12-14T08:01:00,plm,9.03
2021-12-14T08:02:00,plm,9.14
2021-12-14T08:03:00,plm,9.93
2021-12-14T08:04:00,plm,9.92
2021-12-14T08:05:00,plm,9.95
2021-12-14T08:06:00,plm,9.94
2021-12-14T08:07:00,plm,9.98
2021-12-14T08:08:00,plm,9.99
2021-12-14T08:09:00,plm,9.99
2021-12-14T08:10:00,plm,9.48
2021-12-14T08:11:00,plm,9.53
2021-12-14T08:12:00,plm,9.51
2021-12-14T08:13:00,plm,9.50
2021-12-14T08:14:00,plm,10.00
2021-12-14T08:15:00,plm,10.08
2021-12-14T08:16:00,plm,10.01
2021-12-14T08:17:00,plm,9.48
2021-12-14T08:18:00,plm,9.50
2021-12-14T08:19:00,plm,9.17
2021-12-14T08:20:00,plm,9.03
2021-12-14T08:21:00,plm,18.34
2021-12-14T08:22:00,plm,18.14
2021-12-14T08:23:00,plm,18.02
2021-12-14T08:24:00,plm,9.05
2021-12-14T08:25:00,plm,9.86
2021-12-14T08:26:00,plm,9.99
2021-12-14T08:27:00,plm,10.38
2021-12-14T08:28:00,plm,10.57
2021-12-14T08:29:00,plm,19.63
2021-12-14T08:30:00,plm,19.52
2021-12-14T08:31:00,plm,19.33
2021-12-14T08:32:00,plm,19.22
2021-12-14T08:33:00,plm,19.11
2021-12-14T08:34:00,plm,19.20
2021-12-14T08:35:00,plm,19.16
2021-12-14T08:36:00,plm,19.14
2021-12-14T08:37:00,plm,19.05
2021-12-14T08:38:00,plm,19.03
2021-12-14T08:39:00,plm,19.32
2021-12-14T08:40:00,plm,19.95
2021-12-14T08:41:00,plm,19.42
2021-12-14T08:42:00,plm,19.38
2021-12-14T08:43:00,plm,19.35
2021-12-14T08:44:00,plm,18.88
2021-12-14T08:45:00,plm,18.89
2021-12-14T08:46:00,plm,18.88
2021-12-14T08:47:00,plm,18.75
2021-12-14T08:48:00,plm,18.68
2021-12-14T08:49:00,plm,10.52
2021-12-14T08:50:00,plm,10.52
2021-12-14T08:51:00,plm,10.54
2021-12-14T08:52:00,plm,10.48
2021-12-14T08:53:00,plm,10.45
2021-12-14T08:54:00,plm,10.52
2021-12-14T08:55:00,plm,10.50
2021-12-14T08:56:00,plm,10.93
2021-12-14T08:57:00,plm,11.35
2021-12-14T08:58:00,plm,12.33
2021-12-14T08:59:00,plm,12.25
2021-12-14T09:00:00,plm,12.25
2021-12-14T09:01:00,plm,12.25
2021-12-14T09:02:00,plm,12.24
2021-12-14T09:03:00,plm,12.25
2021-12-14T09:04:00,plm,12.29
2021-12-14T09:05:00,plm,11.86
2021-12-14T09:06:00,plm,11.77
2021-12-14T09:07:00,plm,11.82
2021-12-14T09:08:00,plm,11.87
2021-12-14T09:09:00,plm,12.30
2021-12-14T09:10:00,plm,12.36
2021-12-14T09:11:00,plm,12.25
2021-12-14T09:12:00,plm,11.79
2021-12-14T09:13:00,plm,11.79
2021-12-14T09:14:00,plm,12.80
2021-12-14T09:15:00,plm,12.80
2021-12-14T09:16:00,plm,13.29
2021-12-14T09:17:00,plm,13.34
2021-12-14T09:18:00,plm,12.20
2021-12-14T09:19:00,plm,11.75
2021-12-14T09:20:00,plm,11.81
2021-12-14T09:21:00,plm,11.75
2021-12-14T09:22:00,plm,11.73
2021-12-14T09:23:00,plm,12.16
2021-12-14T09:24:00,plm,12.14
2021-12-14T09:25:00,plm,11.30
2021-12-14T09:26:00,plm,11.30
2021-12-14T09:27:00,plm,11.64
2021-12-14T09:28:00,plm,11.61
2021-12-14T09:29:00,plm,11.74
2021-12-14T09:30:00,plm,11.68
2021-12-14T09:31:00,plm,11.65
2021-12-14T09:32:00,plm,11.63
2021-12-14T09:33:00,plm,11.64
2021-12-14T09:34:00,plm,11.60
2021-12-14T09:35:00,plm,11.64
2021-12-14T09:36:00,plm,11.71
2021-12-14T09:37:00,plm,11.25
2021-12-14T09:38:00,plm,11.23
2021-12-14T09:39:00,plm,14.70
2021-12-14T09:40:00,plm,15.71
2021-12-14T09:41:00,plm,15.69
2021-12-14T09:42:00,plm,15.79
2021-12-14T09:43:00,plm,15.81
2021-12-14T09:44:00,plm,20.18
2021-12-14T09:45:00,plm,16.17
2021-12-14T09:46:00,plm,20.14
2021-12-14T09:47:00,plm,17.70
2021-12-14T09:48:00,plm,20.79
2021-12-14T09:49:00,plm,16.69
2021-12-14T09:50:00,plm,20.75
2021-12-14T09:51:00,plm,16.06
2021-12-14T09:52:00,plm,20.08
2021-12-14T09:53:00,plm,16.16
2021-12-14T09:54:00,plm,20.11
2021-12-14T09:55:00,plm,16.08
2021-12-14T09:56:00,plm,20.10
2021-12-14T09:57:00,plm,16.09
2021-12-14T09:58:00,plm,16.12
2021-12-14T09:59:00,plm,20.24
2021-12-14T10:00:00,plm,16.17
2021-12-14T10:01:00,plm,20.11
2021-12-14T10:02:00,plm,16.10
2021-12-14T10:03:00,plm,20.10
2021-12-14T10:04:00,plm,16.16
2021-12-14T10:05:00,plm,29.83
2021-12-14T10:06:00,plm,25.74
2021-12-14T10:07:00,plm,25.38
2021-12-14T10:08:00,plm,21.69
2021-12-14T10:09:00,plm,17.66
2021-12-14T10:10:00,plm,21.17
2021-12-14T10:11:00,plm,17.12
2021-12-14T10:12:00,plm,21.28
2021-12-14T10:13:00,plm,17.37
2021-12-14T10:14:00,plm,17.30
2021-12-14T10:15:00,plm,21.44
2021-12-14T10:16:00,plm,17.41
2021-12-14T10:17:00,plm,21.44
2021-12-14T10:18:00,plm,17.52
2021-12-14T10:19:00,plm,29.94
2021-12-14T10:20:00,plm,25.80
2021-12-14T10:21:00,plm,25.86
2021-12-14T10:22:00,plm,29.93
2021-12-14T10:23:00,plm,14.01
2021-12-14T10:24:00,plm,21.95
2021-12-14T10:25:00,plm,17.97
2021-12-14T10:26:00,plm,22.20
2021-12-14T10:27:00,plm,13.73
2021-12-14T10:28:00,plm,13.44
2021-12-14T10:29:00,plm,20.90
2021-12-14T10:30:00,plm,16.90
2021-12-14T10:31:00,plm,16.94
2021-12-14T10:32:00,plm,16.93
2021-12-14T10:33:00,plm,20.87
2021-12-14T10:34:00,plm,16.39
2021-12-14T10:35:00,plm,13.41
2021-12-14T10:36:00,plm,21.42
2021-12-14T10:37:00,plm,17.26
2021-12-14T10:38:00,plm,17.74
2021-12-14T10:39:00,plm,13.89
2021-12-14T10:40:00,plm,16.66
2021-12-14T10:41:00,plm,16.51
2021-12-14T10:42:00,plm,12.57
2021-12-14T10:43:00,plm,12.47
2021-12-14T10:44:00,plm,12.23
2021-12-14T10:45:00,plm,12.16
2021-12-14T10:46:00,plm,12.23
2021-12-14T10:47:00,plm,11.47
2021-12-14T10:48:00,plm,11.37
2021-12-14T10:49:00,plm,11.38
2021-12-14T10:50:00,plm,11.35
2021-12-14T10:51:00,plm,11.33
2021-12-14T10:52:00,plm,11.19
2021-12-14T10:53:00,plm,11.22
2021-12-14T10:54:00,plm,11.14
2021-12-14T10:55:00,plm,11.16
2021-12-14T10:56:00,plm,11.19
2021-12-14T10:57:00,plm,11.04
2021-12-14T10:58:00,plm,11.01
2021-12-14T10:59:00,plm,10.99
2021-12-14T11:00:00,plm,10.99
2021-12-14T11:01:00,plm,10.99
2021-12-14T11:02:00,plm,11.04
2021-12-14T11:03:00,plm,11.10
2021-12-14T11:04:00,plm,11.36
2021-12-14T11:05:00,plm,11.73
2021-12-14T11:06:00,plm,11.84
2021-12-14T11:07:00,plm,11.86
2021-12-14T11:08:00,plm,11.92
2021-12-14T11:09:00,plm,11.94
2021-12-14T11:10:00,plm,11.49
2021-12-14T11:11:00,plm,11.45
2021-12-14T11:12:00,plm,15.76
2021-12-14T11:13:00,plm,15.88
2021-12-14T11:14:00,plm,15.65
2021-12-14T11:15:00,plm,16.75
2021-12-14T11:16:00,plm,16.73
2021-12-14T11:17:00,plm,16.81
2021-12-14T11:18:00,plm,16.80
2021-12-14T11:19:00,plm,15.76
2021-12-14T11:20:00,plm,15.72
2021-12-14T11:21:00,plm,17.11
2021-12-14T11:22:00,plm,15.78
2021-12-14T11:23:00,plm,16.12
2021-12-14T11:24:00,plm,16.12
2021-12-14T11:25:00,plm,16.07
2021-12-14T11:26:00,plm,16.09
2021-12-14T11:27:00,plm,16.20
2021-12-14T11:28:00,plm,15.63
2021-12-14T11:29:00,plm,15.67
2021-12-14T11:30:00,plm,15.68
2021-12-14T11:31:00,plm,15.64
2021-12-14T11:32:00,plm,12.78
2021-12-14T11:33:00,plm,16.81
2021-12-14T11:34:00,plm,16.86
2021-12-14T11:35:00,plm,16.91
2021-12-14T11:36:00,plm,16.62
2021-12-14T11:37:00,plm,12.58
2021-12-14T11:38:00,plm,12.57
2021-12-14T11:39:00,plm,15.67
2021-12-14T11:40:00,plm,15.50
2021-12-14T11:41:00,plm,15.88
2021-12-14T11:42:00,plm,15.95
2021-12-14T11:43:00,plm,11.88
2021-12-14T11:44:00,plm,11.96
2021-12-14T11:45:00,plm,20.28
2021-12-14T11:46:00,plm,19.83
2021-12-14T11:47:00,plm,14.84
2021-12-14T11:48:00,plm,14.84
2021-12-14T11:49:00,plm,14.76
2021-12-14T11:50:00,plm,18.87
2021-12-14T11:51:00,plm,14.90
2021-12-14T11:52:00,plm,14.78
2021-12-14T11:53:00,plm,15.66
2021-12-14T11:54:00,plm,19.73
2021-12-14T11:55:00,plm,15.68
2021-12-14T11:56:00,plm,15.70
2021-12-14T11:57:00,plm,19.76
2021-12-14T11:58:00,plm,19.74
2021-12-14T11:59:00,plm,15.77
2021-12-14T12:00:00,plm,15.30
2021-12-14T12:01:00,plm,15.36
2021-12-14T12:02:00,plm,19.31
2021-12-14T12:03:00,plm,19.34
2021-12-14T12:04:00,plm,15.78
2021-12-14T12:05:00,plm,15.76
2021-12-14T12:06:00,plm,19.85
2021-12-14T12:07:00,plm,19.32
2021-12-14T12:08:00,plm,15.27
2021-12-14T12:09:00,plm,15.34
2021-12-14T12:10:00,plm,14.94
2021-12-14T12:11:00,plm,15.07
2021-12-14T12:12:00,plm,14.79
2021-12-14T12:13:00,plm,14.86
2021-12-14T12:14:00,plm,14.84
2021-12-14T12:15:00,plm,14.87
2021-12-14T12:16:00,plm,14.90
2021-12-14T12:17:00,plm,24.26
2021-12-14T12:18:00,plm,25.39
2021-12-14T12:19:00,plm,20.09
2021-12-14T12:20:00,plm,23.83
2021-12-14T12:21:00,plm,14.92
2021-12-14T12:22:00,plm,11.07
2021-12-14T12:23:00,plm,11.00
2021-12-14T12:24:00,plm,14.99
2021-12-14T12:25:00,plm,10.98
2021-12-14T12:26:00,plm,11.12
2021-12-14T12:27:00,plm,15.22
2021-12-14T12:28:00,plm,15.54
2021-12-14T12:29:00,plm,12.34
2021-12-14T12:30:00,plm,15.66
2021-12-14T12:31:00,plm,27.25
2021-12-14T12:32:00,plm,11.56
2021-12-14T12:33:00,plm,15.29
2021-12-14T12:34:00,plm,15.15
2021-12-14T12:35:00,plm,11.24
2021-12-14T12:36:00,plm,11.32
2021-12-14T12:37:00,plm,15.38
2021-12-14T12:38:00,plm,11.42
2021-12-14T12:39:00,plm,11.99
2021-12-14T12:40:00,plm,17.32
2021-12-14T12:41:00,plm,13.54
2021-12-14T12:42:00,plm,13.47
2021-12-14T12:43:00,plm,13.40
2021-12-14T12:44:00,plm,13.23
2021-12-14T12:45:00,plm,12.79
2021-12-14T12:46:00,plm,11.80
2021-12-14T12:47:00,plm,11.86
2021-12-14T12:48:00,plm,11.94
2021-12-14T12:49:00,plm,13.52
2021-12-14T12:50:00,plm,13.73
2021-12-14T12:51:00,plm,13.76
2021-12-14T12:52:00,plm,11.78
2021-12-14T12:53:00,plm,13.02
2021-12-14T12:54:00,plm,13.06
2021-12-14T12:55:00,plm,12.92
2021-12-14T12:56:00,plm,12.22
2021-12-14T12:57:00,plm,12.22
2021-12-14T12:58:00,plm,12.28
2021-12-14T12:59:00,plm,11.51
2021-12-14T13:00:00,plm,15.83
2021-12-14T13:01:00,plm,15.66
2021-12-14T13:02:00,plm,15.67
2021-12-14T13:03:00,plm,16.10
2021-12-14T13:04:00,plm,16.15
2021-12-14T13:05:00,plm,16.13
2021-12-14T13:06:00,plm,16.13
2021-12-14T13:07:00,plm,15.72
2021-12-14T13:08:00,plm,15.52
2021-12-14T13:09:00,plm,10.26
2021-12-14T13:10:00,plm,14.08
2021-12-14T13:11:00,plm,10.51
2021-12-14T13:12:00,plm,14.59
2021-12-14T13:13:00,plm,10.57
2021-12-14T13:14:00,plm,14.04
2021-12-14T13:15:00,plm,13.99
2021-12-14T13:16:00,plm,10.00
2021-12-14T13:17:00,plm,13.96
2021-12-14T13:18:00,plm,10.47
2021-12-14T13:19:00,plm,14.43
2021-12-14T13:20:00,plm,14.36
2021-12-14T13:21:00,plm,9.52
2021-12-14T13:22:00,plm,13.58
2021-12-14T13:23:00,plm,9.61
2021-12-14T13:24:00,plm,13.61